[[{"header":{"parameterUnit":"m.s-1","parameterCategory":1,"la1":30.2992,"la2":30.254,"lo1":-89.0895,"lo2":-89.0443,"dy":0.0025,"dx":0.0025,"nx":19,"ny":19,"refTime":"2026-03-12T03:00:00:Z","depth":0,"parameterNumber":2,"parameterNumberName":"U-component_of_WINDS"},"data":[0,0,0,0.5659,0.5659,0.5652,0.5652,0.5641,0.5641,0,0,0,0,0,0,0,0,0,0,0,0.5661,0.5661,0.5659,0.5659,0.5652,0.5652,0.5641,0.5641,0,0,0,0,0,0,0,0,0,0,0,0.5661,0.5661,0.5661,0.5659,0.5652,0.5652,0.5641,0.5647,0,0,0,0,0,0,0,0,0,0,0.5655,0.5655,0.5661,0.5661,0.5659,0.5652,0.5652,0.5647,0.5647,0.5644,0,0.5641,0,0.5641,0.564,0.564,0,0,0,0.566,0.5655,0.5654,0.5661,0.5659,0.5652,0.5655,0.5647,0.5646,0.5643,0.5641,0.5641,0.5641,0.564,0.564,0.5624,0.5624,0,0,0.566,0.5659,0.5655,0.5654,0.5655,0.5656,0.5655,0.5647,0.5644,0.5641,0.564,0.5641,0.564,0.564,0.5624,0.5624,0,0,0,0.5661,0.5659,0.5658,0.5654,0.5653,0.5655,0.5655,0.5645,0.5645,0.564,0.5641,0.564,0.564,0.5624,0.5624,0.5618,0,0,0,0.5661,0.566,0.5658,0.5657,0.5653,0.5649,0.5653,0.5645,0.5644,0.5641,0.564,0.564,0.5624,0.5624,0.5618,0.5615,0,0,0,0.5662,0.566,0.5658,0.5657,0.5654,0.5649,0.5648,0.5645,0.5644,0.564,0.564,0.5624,0.5624,0.5619,0.5615,0.5611,0,0,0,0.5661,0.5652,0.5658,0.5648,0.5654,0.5646,0.5648,0.5642,0.5637,0.564,0.5624,0.5624,0.5619,0.5616,0.5611,0.5606,0.5604,0,0,0.5649,0.5651,0.5645,0.565,0.564,0.5647,0.5636,0.5633,0.5633,0.5627,0.5627,0.5618,0.5615,0.5611,0.5593,0.5592,0,0,0,0.5641,0.5637,0.5634,0.5631,0.5629,0.5628,0.5627,0.5626,0.5621,0.563,0.5615,0.5614,0.5611,0.5609,0.5607,0.5605,0.5623,0.5623,0.5623,0.562,0.5623,0.5614,0.5616,0.5613,0.5613,0.5611,0.561,0.5612,0.5609,0.5607,0.5596,0.5593,0.5592,0.559,0.5605,0.5605,0.5605,0.5605,0.5602,0.5597,0.5603,0.5596,0.5599,0.5594,0.5595,0.5597,0.5593,0.5598,0.5595,0.56,0.559,0.5589,0.5604,0.5605,0.5605,0.5605,0.5605,0.5589,0.5587,0.5587,0.5584,0.5581,0.5584,0.558,0.5583,0.5585,0.5583,0.5582,0.5582,0.5582,0.5583,0.5582,0.5582,0.5582,0.5582,0.5582,0.5574,0.5575,0.5571,0.5571,0.557,0.5569,0.5571,0.5571,0.5571,0.5573,0.5573,0.5576,0.5589,0.5592,0.5582,0.5582,0.5582,0.5582,0.5582,0.5554,0.556,0.5554,0.5553,0.5554,0.5552,0.5556,0.5555,0.5555,0.5553,0.5558,0.5568,0.5569,0.557,0.5573,0.5557,0.5557,0.5557,0.5557,0.5542,0.5544,0.554,0.5539,0.5538,0.5543,0.5538,0.554,0.5543,0.5544,0.5547,0.5551,0.5552,0.5553,0.5554,0.5557,0.5538,0.5538,0.5538,0.553,0.5532,0.5526,0.5531,0.5532,0.5533,0.5529,0.5528,0.5533,0.5537,0.5544,0.5545,0.5552,0.5554,0.5556,0.5558,0.5563,0,0]},{"header":{"parameterUnit":"m.s-1","parameterCategory":1,"la1":30.2992,"la2":30.254,"lo1":-89.0895,"lo2":-89.0443,"dy":0.0025,"dx":0.0025,"nx":19,"ny":19,"refTime":"2026-03-12T03:00:00:Z","depth":0,"parameterNumber":3,"parameterNumberName":"V-component_of_WINDS"},"data":[0,0,0,-8.7699,-8.7702,-8.7866,-8.7866,-8.8078,-8.808,0,0,0,0,0,0,0,0,0,0,0,-8.7655,-8.7656,-8.7698,-8.7703,-8.7866,-8.7866,-8.8077,-8.808,0,0,0,0,0,0,0,0,0,0,0,-8.7654,-8.7656,-8.7658,-8.7703,-8.7866,-8.7866,-8.8077,-8.7952,0,0,0,0,0,0,0,0,0,0,-8.7793,-8.7757,-8.7655,-8.7658,-8.7704,-8.7865,-8.7866,-8.7946,-8.796,-8.8006,0,-8.805,0,-8.8069,-8.8094,-8.8095,0,0,0,-8.7698,-8.7745,-8.7786,-8.7658,-8.7706,-8.7865,-8.7791,-8.7954,-8.7969,-8.8024,-8.8053,-8.8061,-8.8072,-8.8096,-8.8097,-8.8387,-8.8388,0,0,-8.7689,-8.7685,-8.7775,-8.7797,-8.7775,-8.7786,-8.7796,-8.7963,-8.7993,-8.8054,-8.8066,-8.8076,-8.8097,-8.8099,-8.8385,-8.8387,0,0,0,-8.7666,-8.7679,-8.7716,-8.7788,-8.7817,-8.7791,-8.7802,-8.7986,-8.7998,-8.8068,-8.8078,-8.8098,-8.8101,-8.8383,-8.8386,-8.8462,0,0,0,-8.7661,-8.7666,-8.7712,-8.7711,-8.7815,-8.7904,-8.7821,-8.7987,-8.8006,-8.8077,-8.8098,-8.8103,-8.8382,-8.8385,-8.8456,-8.8497,0,0,0,-8.7642,-8.7663,-8.7689,-8.771,-8.7781,-8.7902,-8.7924,-8.7991,-8.8012,-8.8095,-8.8104,-8.8381,-8.8384,-8.8451,-8.8489,-8.8575,0,0,0,-8.762,-8.775,-8.769,-8.7839,-8.778,-8.7948,-8.7922,-8.8047,-8.8127,-8.81,-8.8382,-8.8386,-8.8449,-8.8484,-8.857,-8.8648,-8.868,0,0,-8.7781,-8.7769,-8.7857,-8.7809,-8.7988,-8.7924,-8.8113,-8.8188,-8.8196,-8.8322,-8.8329,-8.8458,-8.8488,-8.8574,-8.8859,-8.8884,0,0,0,-8.7907,-8.797,-8.8019,-8.8098,-8.8161,-8.822,-8.8267,-8.8295,-8.8403,-8.8262,-8.8512,-8.853,-8.858,-8.8617,-8.8639,-8.8683,-8.8402,-8.8402,-8.8402,-8.8126,-8.8137,-8.8284,-8.8315,-8.8392,-8.8442,-8.8505,-8.8551,-8.8534,-8.8593,-8.8631,-8.8803,-8.8847,-8.8863,-8.8909,-8.8672,-8.8672,-8.8672,-8.8673,-8.8364,-8.8457,-8.8438,-8.8574,-8.8583,-8.8696,-8.8751,-8.8736,-8.8842,-8.8774,-8.8819,-8.8745,-8.8891,-8.8932,-8.8678,-8.8677,-8.8677,-8.8676,-8.8676,-8.851,-8.8557,-8.8593,-8.8712,-8.8801,-8.8827,-8.8932,-8.8935,-8.8938,-8.8982,-8.9023,-8.9022,-8.9022,-8.9002,-8.9002,-8.9003,-8.9003,-8.9004,-8.9004,-8.8648,-8.8686,-8.8776,-8.886,-8.8913,-8.8984,-8.9039,-8.909,-8.9148,-8.9142,-8.9142,-8.9121,-8.8904,-8.885,-8.9014,-8.9012,-8.9011,-8.901,-8.9009,-8.8886,-8.8834,-8.8974,-8.9028,-8.9128,-8.9219,-8.9223,-8.9329,-8.9372,-8.9424,-8.9395,-8.9233,-8.9219,-8.9202,-8.9158,-8.9391,-8.9391,-8.9391,-8.9391,-8.901,-8.9005,-8.9151,-8.9239,-8.9324,-8.9344,-8.9501,-8.9546,-8.9583,-8.9611,-8.9577,-8.9518,-8.9501,-8.9497,-8.9474,-8.9432,-8.9731,-8.9731,-8.9731,-8.9159,-8.9163,-8.9297,-8.9338,-8.9417,-8.9485,-8.9633,-8.9733,-8.9763,-8.9745,-8.9633,-8.9619,-8.9523,-8.9492,-8.9469,-8.9433,-8.9357,0,0]}]]